Погода в Могилеве

Погода в Могилеве : погода сейчас, прогноз погоды и архив. Всё, что Вы хотите узнать о погоде в Могилеве!

Поиск расширенной информации на нашем сайте:

Другие новости

Новости СМИ2

Главная страница сайта

Новости сайта

03.07.2017

Напоминаем, что на нашем специализированном сайте Метеоцентр.Азия вы можете получить высокодетализированные автоматические прогнозы погоды по пунктам России, СНГ и мира в авиационном формате (включающие направление и скорость ветра, видимость, явления погоды, количество и форму облачности, нижнюю и верхнюю границу облачности).


Погода в Могилеве - сегодня

Время (UTC), дата Ветер
(°,м/с) 
Видим.   Явления Облачность Т
(°С)
Тd
(°С)
f(%) Тe
(°С)
Pmin
(гПа)
dP
(гПа)
Po
(мм)
O2
(г/м3)
Тmin Tmax R s Состояние
почвы
06 14.10.18 270 (З) 0200 м  туман  ?/?  
+3.7 +3.7 100 +5  1032.3  756  300  +1.8         
09 14.10.18 290 (З) 4500 м  в посл. час туман  4/0 верхняя 
[Ci sp]
+11.7 +10.2 91 +14  1031.9  0.2  756  290           
15 14.10.18 250 (З) 10 км    8/0 верхняя 
[Ci sp]
+15.5 +10.2 71 +18  1030.1  -0.5  755  286           
18 14.10.18 тихо ()   4500 м  дымка  8/0 верхняя 
[Ci sp]
+8.5 +7.4 93 +9  1030  -0.7  755  294    +18.5       
21 14.10.18 тихо ()   0200 м  туман  ясно 
+5.3 +5.3 100 +5  1030.7  0.4  755  298           
00 15.10.18 150 (ЮВ) 0200 м  туман  ясно 
+3.2 +3.2 100 +4  1030.8  -0.1  755  300           
03 15.10.18 140 (ЮВ) 0200 м  туман  ясно 
+1.3 +1.3 100 +2  1030.9  -0.1  755  303           
06 15.10.18 130 (ЮВ) 1800 м  в посл. час туман  4/0 верхняя 
[Ci sp]
+2.7 +2.3 97 +3  1031  0.2  755  301  +1         
09 15.10.18 150 (ЮВ) 10 км    8/0 верхняя 
[Ci sp]
+14.6 +7.1 61 +16  1030.3  0.4  755  288           
12 15.10.18 200 (Ю) 10 км    6/0 верхняя 
[Ci sp]
+18.2 +3.2 37 +19  1029.5  0.6  755  285           
15 15.10.18 170 (Ю) 12000 м    8/0 верхняя 
[Ci sp]
+14.3 +3.8 49 +16  1029  -0.8  754  288           
18 15.10.18 150 (ЮВ) 10 км    8/0 верхняя 
[Ci sp]
+8.7 +5.1 78 +9  1029  -0.4  754  294    +18.5       
21 15.10.18 170 (Ю) 10 км    6/0 верхняя 
[Ci sp]
+7.7 +3.8 76 +8  1028.8  -0.3  754  295           
00 16.10.18 140 (ЮВ) 10 км    3/0 верхняя 
[Ci sp]
+5.7 +3 83 +7  1028.8  -0.1  754  297           
03 16.10.18 150 (ЮВ) 5000 м  дымка  ясно 
+4.3 +2.8 90 +4  1028.9  -0.1  754  299           
06 16.10.18 130 (ЮВ) 10 км    3/0 верхняя 
[Ci sp]
+5.1 +3.7 91 +5  1028.2  -0.6  753  297  +4         
09 16.10.18 160 (Ю) 6000 м  дымка  3/0 верхняя 
[Ci sp]
+14.6 +12 84 +19  1027.4  753  286           
12 16.10.18 190 (Ю) 10 км    1/0 верхняя 
[Ci sp]
+18.7 +13.8 73 +26  1026.2  -0.8  753  281           
15 16.10.18 180 (Ю) 10 км    ясно 
+16.1 +10 67 +18  1026.1  -0.4  752  284           
18 16.10.18 180 (Ю) 10 км    ясно 
+11.3 +7.1 75 +12  1026.2  -0.3  752  290    +19       
21 16.10.18 210 (ЮЗ) 10 км    ясно 
+9.5 +6.5 82 +11  1026.4  0.1  752  292           
00 17.10.18 120 (ЮВ) 5000 м  дымка  ясно 
+7.7 +6.4 91 +9  1026.6  752  294           
03 17.10.18 140 (ЮВ) 1100 м  дымка  ясно 
+6.5 +6.1 97 +6  1026  -0.5  752  295           
06 17.10.18 140 (ЮВ) 0900 м  туман  ясно 
+4.6 +4.6 100 +4  1027.1  0.7  752  297  +4.5         
09 17.10.18 170 (Ю) 10 км  {туман}  ясно 
+17.1 +9.3 60 +18  1026.3  0.3  753  284           
Время (UTC), дата Ветер
(°,м/с) 
Видим.   Явления Облачность Т
(°С)
Тd
(°С)
f(%) Тe
(°С)
Pmin
(гПа)
dP
(гПа)
Po
(мм)
O2
(г/м3)
Тmin Tmax R s Состояние
почвы

Для получения пояснительной информации подведите курсор к названию столбца.

ПОГОДА в Могилеве - архив

Всё, что Вы хотите узнать о погоде в Могилеве - удобно и подробно!

Выберите нужную дату (начиная с 1 января 2015* года) и нажмите кнопку "Найти".
Будут отображены архивные сводки погоды по пункту Могилев, начиная с указанной даты.


Отображать данные в формате CSV (для использования в таблицах Excel)


Внимание! Наш архив погоды предназначен исключительно для личного некоммерческого использования в познавательных целях. Если Вам необходимы официальные справки о состоянии погоды (для производственных, юридических, коммерческих и т.п. целей), обращайтесь в органы Росгидромета.

*Примечание: данная дата относится к архиву по метеостанциям СССР (Россия, СНГ, Балтия).
Архив по метеостанциям Зарубежной Европы и Азии (кроме Китая) хранится 10 дней, по другим регионам земного шара (Китай, Африка, Америка, Австралия, Океания) - 1 день.

Могилев - район местоположения метеостанции


Название, широта, долгота, высота метеостанции:
Могилев 53.9°ш. 30.1°д. 192 м над ур. моря [Беларусь]

Дополнительная информация

В oтличие oт бoльшинства пoгoдных сайтoв мы публикуем пoдрoбную метеoинфoрмацию в детальнoм прoфессиoнальнoм фoрмате.

Характеристики температуры и влажнoсти вoздуха измеряются на высoте 2 м в тени вдали oт зданий и деревьев.
Скoрoсть ветра измеряется на высoте 10 м (на урoвне рoста челoвека скoрoсть ветра ниже в 1.5-2 раза). Если метеoстанция нахoдится в гoрoде или в лесу, тo скoрoсть ветра занижена на 2-4 м/с пo сравнению с oткрытым местoм. Скoрoсть ветра над акватoриями крупных рек и oзёр, а также на вершинах хoлмoв на 2-5 м/с выше, чем в oбычных услoвиях.
Атмoсфернoе давление в разных тoчках местнoсти мoжет значительнo oтличаться oт давления на метеoстанции, в зависимoсти oт услoвий рельефа (при пoдъёме на 10 м давление пoнижается примернo на 1 мм рт.ст.).